NKO UWLL-UWLL

Flight info

Callsign NKO
Flight time N/A
Altitude 1500
Route RA/A015
Aircraft DA40/L-SDFGY/C

Departure

Time 2026-05-08 20:19
Airport Ulyanovsk Baratayevka Airport (UWLL)

Arrival

Time N/A
Airport Ulyanovsk Baratayevka Airport (UWLL)
Time Latitude Longitude Altitude Speed Heading
2026-05-08 20:09 54.27370 48.23766 397 ft 0 kts 261°
2026-05-08 20:11 54.27360 48.23743 370 ft 4 kts 202°
2026-05-08 20:11 54.27308 48.23713 399 ft 5 kts 197°
2026-05-08 20:11 54.27280 48.23683 400 ft 8 kts 216°
2026-05-08 20:11 54.27257 48.23657 400 ft 5 kts 217°
2026-05-08 20:12 54.27209 48.23604 402 ft 12 kts 212°
2026-05-08 20:12 54.27153 48.23549 403 ft 4 kts 205°
2026-05-08 20:12 54.27138 48.23508 404 ft 6 kts 256°
2026-05-08 20:12 54.27120 48.23456 405 ft 4 kts 199°
2026-05-08 20:13 54.27102 48.23433 405 ft 7 kts 219°
2026-05-08 20:13 54.27048 48.23379 407 ft 12 kts 217°
2026-05-08 20:13 54.27013 48.23346 408 ft 6 kts 205°
2026-05-08 20:13 54.26996 48.23320 409 ft 5 kts 213°
2026-05-08 20:14 54.26948 48.23267 410 ft 7 kts 233°
2026-05-08 20:14 54.26963 48.23214 410 ft 9 kts 303°
2026-05-08 20:14 54.27000 48.23117 410 ft 6 kts 304°
2026-05-08 20:14 54.27028 48.23042 410 ft 1 kts 300°
2026-05-08 20:15 54.27032 48.23026 410 ft 1 kts 279°
2026-05-08 20:15 54.27026 48.23005 410 ft 2 kts 203°
2026-05-08 20:15 54.27008 48.22986 411 ft 7 kts 213°
2026-05-08 20:15 54.26971 48.22946 412 ft 8 kts 212°
2026-05-08 20:16 54.26946 48.22884 413 ft 5 kts 275°
2026-05-08 20:16 54.26971 48.22823 413 ft 10 kts 330°
2026-05-08 20:16 54.27071 48.22779 410 ft 20 kts 350°
2026-05-08 20:16 54.27235 48.22799 406 ft 27 kts 20°
2026-05-08 20:17 54.27498 48.23071 401 ft 64 kts 33°
2026-05-08 20:17 54.27729 48.23329 419 ft 76 kts 25°
2026-05-08 20:18 54.27803 48.23412 454 ft 75 kts 24°
2026-05-08 20:18 54.28228 48.23876 635 ft 72 kts 28°
2026-05-08 20:18 54.28629 48.24355 816 ft 68 kts 22°
2026-05-08 20:19 54.29075 48.24797 848 ft 77 kts 24°
2026-05-08 20:19 54.29500 48.25424 950 ft 85 kts 35°
2026-05-08 20:19 54.29970 48.26044 1096 ft 86 kts 27°
2026-05-08 20:19 54.30545 48.26355 1166 ft 90 kts 347°
2026-05-08 20:20 54.31070 48.25791 1303 ft 89 kts 317°
2026-05-08 20:20 54.31402 48.24885 1444 ft 89 kts 302°
2026-05-08 20:20 54.31661 48.23856 1457 ft 98 kts 299°
2026-05-08 20:20 54.31880 48.22736 1484 ft 104 kts 285°
2026-05-08 20:21 54.31505 48.21545 1484 ft 132 kts 225°
2026-05-08 20:21 54.30677 48.20794 1583 ft 133 kts 214°
2026-05-08 20:21 54.29818 48.20038 1524 ft 144 kts 213°
2026-05-08 20:21 54.28890 48.19286 1515 ft 146 kts 212°
2026-05-08 20:22 54.27987 48.18501 1538 ft 145 kts 213°
2026-05-08 20:22 54.27111 48.17713 1591 ft 136 kts 218°
2026-05-08 20:22 54.26292 48.16848 1480 ft 142 kts 219°
2026-05-08 20:22 54.25734 48.16272 1440 ft 141 kts 218°
2026-05-08 20:23 54.24518 48.15598 1408 ft 145 kts 173°
2026-05-08 20:23 54.23682 48.16466 1359 ft 141 kts 127°
2026-05-08 20:23 54.23225 48.17746 1354 ft 105 kts 96°
2026-05-08 20:23 54.23403 48.18727 1240 ft 89 kts 31°
2026-05-08 20:24 54.23965 48.19265 1071 ft 96 kts 26°
2026-05-08 20:24 54.24552 48.19870 838 ft 101 kts 32°
2026-05-08 20:24 54.25145 48.20535 604 ft 101 kts 32°
2026-05-08 20:24 54.25725 48.21168 466 ft 94 kts 30°
2026-05-08 20:25 54.26211 48.21692 441 ft 72 kts 31°
2026-05-08 20:25 54.26660 48.22178 512 ft 80 kts 30°
2026-05-08 20:25 54.27150 48.22680 650 ft 84 kts 27°
2026-05-08 20:25 54.27646 48.23234 801 ft 85 kts 30°
2026-05-08 20:26 54.28180 48.23797 931 ft 96 kts 26°
2026-05-08 20:26 54.28782 48.24408 1025 ft 106 kts 30°
2026-05-08 20:26 54.29417 48.25082 1111 ft 111 kts 29°
2026-05-08 20:26 54.30075 48.25760 1200 ft 114 kts 26°
2026-05-08 20:27 54.30796 48.25581 1290 ft 111 kts 322°
2026-05-08 20:27 54.31331 48.24610 1376 ft 110 kts 306°
2026-05-08 20:27 54.31587 48.23380 1373 ft 118 kts 270°
2026-05-08 20:27 54.31309 48.22054 1418 ft 118 kts 234°
2026-05-08 20:28 54.30680 48.21143 1476 ft 117 kts 212°
2026-05-08 20:28 54.29966 48.20446 1509 ft 119 kts 210°
2026-05-08 20:28 54.29226 48.19812 1517 ft 120 kts 209°
2026-05-08 20:28 54.28491 48.19106 1491 ft 123 kts 212°
2026-05-08 20:29 54.27752 48.18333 1450 ft 124 kts 214°
2026-05-08 20:29 54.27031 48.17567 1481 ft 121 kts 213°
2026-05-08 20:29 54.26310 48.16783 1432 ft 124 kts 215°
2026-05-08 20:29 54.25506 48.16277 1384 ft 127 kts 182°
2026-05-08 20:30 54.24719 48.16907 1302 ft 126 kts 131°
2026-05-08 20:30 54.24450 48.18168 1166 ft 106 kts 103°
2026-05-08 20:30 54.24552 48.19409 868 ft 108 kts 65°
2026-05-08 20:30 54.25004 48.20384 620 ft 104 kts 37°
2026-05-08 20:31 54.25592 48.21033 464 ft 91 kts 32°
2026-05-08 20:31 54.26042 48.21513 463 ft 77 kts 29°
2026-05-08 20:31 54.26517 48.22037 615 ft 83 kts 28°
2026-05-08 20:31 54.27008 48.22570 782 ft 86 kts 30°
2026-05-08 20:32 54.27513 48.23139 947 ft 89 kts 29°
2026-05-08 20:32 54.28062 48.23736 1078 ft 98 kts 31°
2026-05-08 20:32 54.28646 48.24411 1206 ft 104 kts 32°
2026-05-08 20:32 54.29253 48.25111 1312 ft 107 kts 31°
2026-05-08 20:33 54.29875 48.25782 1424 ft 108 kts 31°
2026-05-08 20:33 54.30600 48.26051 1471 ft 110 kts 342°
2026-05-08 20:33 54.31139 48.25143 1460 ft 115 kts 302°
2026-05-08 20:33 54.31596 48.23983 1441 ft 119 kts 301°
2026-05-08 20:34 54.31825 48.22653 1410 ft 121 kts 257°
2026-05-08 20:34 54.31295 48.21558 1489 ft 112 kts 216°
2026-05-08 20:34 54.29911 48.19984 1423 ft 122 kts 215°
2026-05-08 20:35 54.29208 48.19197 1450 ft 119 kts 215°
2026-05-08 20:35 54.28517 48.18394 1424 ft 122 kts 216°
2026-05-08 20:35 54.27818 48.17637 1487 ft 118 kts 213°
2026-05-08 20:35 54.27128 48.16880 1471 ft 121 kts 214°
2026-05-08 20:36 54.26391 48.16090 1319 ft 130 kts 214°
2026-05-08 20:36 54.25608 48.15292 1191 ft 129 kts 206°
2026-05-08 20:36 54.24776 48.15435 1175 ft 126 kts 147°
2026-05-08 20:36 54.24283 48.16608 1185 ft 108 kts 120°
2026-05-08 20:37 54.24005 48.17708 1099 ft 97 kts 107°
2026-05-08 20:37 54.24041 48.18847 936 ft 99 kts 68°
2026-05-08 20:37 54.24453 48.19768 763 ft 98 kts 36°
2026-05-08 20:37 54.25016 48.20413 606 ft 97 kts 30°
2026-05-08 20:38 54.25582 48.21018 473 ft 93 kts 30°
2026-05-08 20:38 54.26048 48.21521 453 ft 76 kts 28°
2026-05-08 20:38 54.26537 48.22042 570 ft 86 kts 29°
2026-05-08 20:38 54.27047 48.22581 765 ft 85 kts 30°
2026-05-08 20:39 54.27385 48.22966 853 ft 93 kts 31°
2026-05-08 20:39 54.27958 48.23600 968 ft 102 kts 31°
2026-05-08 20:39 54.28542 48.24276 1138 ft 102 kts 32°
2026-05-08 20:39 54.29305 48.25155 1386 ft 100 kts 32°
2026-05-08 20:40 54.29918 48.25870 1416 ft 110 kts 33°
2026-05-08 20:40 54.30630 48.26331 1432 ft 114 kts 347°
2026-05-08 20:40 54.31067 48.25820 1412 ft 118 kts 306°
2026-05-08 20:40 54.31525 48.24647 1429 ft 118 kts 302°
2026-05-08 20:41 54.31894 48.23395 1434 ft 119 kts 280°
2026-05-08 20:41 54.31724 48.22016 1421 ft 122 kts 238°
2026-05-08 20:41 54.31096 48.21122 1527 ft 118 kts 210°
2026-05-08 20:41 54.30371 48.20438 1534 ft 122 kts 210°
2026-05-08 20:42 54.29614 48.19748 1485 ft 126 kts 210°
2026-05-08 20:42 54.28856 48.19062 1562 ft 121 kts 212°
2026-05-08 20:42 54.28117 48.18335 1538 ft 124 kts 211°
2026-05-08 20:42 54.27338 48.17605 1367 ft 132 kts 210°
2026-05-08 20:43 54.26539 48.16876 1327 ft 127 kts 211°
2026-05-08 20:43 54.25791 48.16116 1291 ft 123 kts 213°
2026-05-08 20:43 54.25017 48.15558 1242 ft 121 kts 181°
2026-05-08 20:43 54.24453 48.16231 1289 ft 95 kts 120°
2026-05-08 20:44 54.24146 48.17139 1309 ft 87 kts 117°
2026-05-08 20:44 54.23965 48.18126 1247 ft 90 kts 86°
2026-05-08 20:44 54.24201 48.19144 1107 ft 96 kts 58°
2026-05-08 20:44 54.24648 48.20020 901 ft 100 kts 36°
2026-05-08 20:45 54.25240 48.20656 689 ft 101 kts 28°
2026-05-08 20:45 54.25834 48.21292 492 ft 100 kts 30°
2026-05-08 20:45 54.26343 48.21834 436 ft 67 kts 31°
2026-05-08 20:45 54.26732 48.22250 441 ft 78 kts 29°
2026-05-08 20:46 54.27202 48.22775 621 ft 80 kts 31°
2026-05-08 20:46 54.27684 48.23294 764 ft 87 kts 27°
2026-05-08 20:46 54.28223 48.23838 892 ft 89 kts 30°
2026-05-08 20:46 54.28726 48.24376 1070 ft 88 kts 32°
2026-05-08 20:47 54.29244 48.25006 1231 ft 94 kts 33°
2026-05-08 20:47 54.29780 48.25667 1422 ft 94 kts 33°
2026-05-08 20:47 54.30372 48.26256 1506 ft 101 kts 14°
2026-05-08 20:47 54.31040 48.25886 1452 ft 113 kts 311°
2026-05-08 20:48 54.31497 48.24766 1477 ft 116 kts 301°
2026-05-08 20:48 54.31939 48.23572 1472 ft 118 kts 302°
2026-05-08 20:48 54.32082 48.22268 1519 ft 118 kts 252°
2026-05-08 20:48 54.31517 48.21237 1513 ft 123 kts 212°
2026-05-08 20:49 54.30765 48.20520 1504 ft 125 kts 209°
2026-05-08 20:49 54.29977 48.19846 1456 ft 129 kts 206°
2026-05-08 20:49 54.29188 48.19215 1552 ft 119 kts 208°
2026-05-08 20:49 54.28478 48.18545 1594 ft 118 kts 212°
2026-05-08 20:50 54.27760 48.17813 1559 ft 120 kts 212°
2026-05-08 20:50 54.27037 48.17074 1532 ft 121 kts 212°
2026-05-08 20:50 54.26303 48.16327 1470 ft 124 kts 212°
2026-05-08 20:50 54.25524 48.15671 1377 ft 128 kts 195°
2026-05-08 20:51 54.24729 48.16156 1305 ft 129 kts 132°
2026-05-08 20:51 54.24308 48.17399 1320 ft 106 kts 115°
2026-05-08 20:51 54.24272 48.18592 1150 ft 102 kts 69°
2026-05-08 20:51 54.24636 48.19571 1019 ft 97 kts 49°
2026-05-08 20:52 54.25093 48.20402 885 ft 96 kts 37°
2026-05-08 20:52 54.25633 48.21075 712 ft 99 kts 31°
2026-05-08 20:52 54.26217 48.21695 516 ft 97 kts 31°
2026-05-08 20:52 54.26742 48.22259 424 ft 79 kts 31°
2026-05-08 20:53 54.27115 48.22653 409 ft 53 kts 32°